STARLINK-1339 (45533 NORAD) Tracking and Keplerian Element Data

This shows tracking and keplerian element data for the satellite.

Feedback or suggestion? Click here.




ElementValue
Catalog45533
NameSTARLINK-1339
Epoch Orbit570
Epoch Day145.66667824
Epoch Year2020
RAAN243.5339
Inclination52.9998
Eccentricity0.000439
Argument of Perigee37.2831
Mean Anonmoly321.1627
Mean Motion15.43474151
Decay Rate0.04851928
L11 45533U 20025C 20145.66667824 .04851928 00000-0 92074-1 0 9996
L22 45533 52.9998 243.5339 0004390 37.2831 321.1627 15.43474151 5702

Live tracking and technical data element details for STARLINK-1339 (NORAD 45533). STARLINK-1339 can be tracked NOW for your location showing map with azimuth and elevation plus other details from your city location.

Track the satellite on the map from your city or location and see movement details for azimuth, elevation, latitude, longitude, range, height, and movement on the map or in text.







IsCatalogInMostPopularTable: catalog: 45533, numindb: 6
Update: records affected: 1



GetName: 45533 STARLINK-1339

Hit Count: updated at: Tue, 26 May 2020 02:08:37 GMT